Location: Linz
(48.3300°N, 14.3000°E)
Time: 02:06:32
(UTC+01:00)

Tiangong 2 - Pass Details

Date: 13 November 2017
Orbit: 386 x 391 km, 42.8° (Epoch: 20 November)

Event Time Altitude Azimuth Distance (km) Brightness Sun altitude
Rises 17:07:27 0° 264° (W) 2,277 6.9 -7.1°
Reaches altitude 10° 17:10:11 10° 238° (WSW) 1,418 5.5 -7.5°
Maximum altitude 17:12:01 14° 204° (SSW) 1,183 4.2 -7.8°
Drops below altitude 10° 17:13:50 10° 169° (SSE) 1,412 4.0 -8.1°
Sets 17:16:34 0° 143° (SE) 2,262 4.8 -8.5°
